EW6810 Weather Reports


Display with metric or nautical units.
time (UTC)temp
F
wind
direction
speed
MPH
gust
MPH
rain 1hr
in
rain 24hr
in
rain mn
in
humidity
%
barometer
mb
20260502210042 71 125 1.0 6.0 0.00 0.00 0.00 51 1012.8
20260502205540 72 167 3.0 6.0 0.00 0.00 0.00 48 1012.9
20260502205042 71 119 1.0 4.0 0.00 0.00 0.00 51 1012.9
20260502204537 72 116 1.0 6.0 0.00 0.00 0.00 48 1013.0
20260502204038 72 96 3.0 8.0 0.00 0.00 0.00 47 1013.0
20260502203535 71 37 1.0 8.0 0.00 0.00 0.00 49 1013.1
20260502203032 71 191 1.0 6.0 0.00 0.00 0.00 47 1013.1
20260502202531 71 187 2.0 7.0 0.00 0.00 0.00 47 1013.2
20260502202030 71 292 1.0 6.0 0.00 0.00 0.00 48 1013.3
20260502201528 71 130 2.0 6.0 0.00 0.00 0.00 48 1013.4
20260502201027 70 203 1.0 5.0 0.00 0.00 0.00 51 1013.4
20260502200526 71 47 3.0 5.0 0.00 0.00 0.00 50 1013.4
20260502200027 71 50 1.0 5.0 0.00 0.00 0.00 53 1013.5
20260502195522 71 67 1.0 5.0 0.00 0.00 0.00 53 1013.5
20260502195021 71 155 2.0 5.0 0.00 0.00 0.00 53 1013.7
20260502194519 69 186 1.0 5.0 0.00 0.00 0.00 54 1013.7
20260502194018 70 101 2.0 6.0 0.00 0.00 0.00 52 1013.7
20260502193517 69 161 2.0 5.0 0.00 0.00 0.00 52 1013.7
20260502193016 70 217 1.0 5.0 0.00 0.00 0.00 55 1013.7
20260502192514 70 158 2.0 5.0 0.00 0.00 0.00 51 1013.7
20260502192015 69 231 1.0 5.0 0.00 0.00 0.00 55 1013.7
20260502191518 68 142 2.0 5.0 0.00 0.00 0.00 54 1013.8
20260502191009 69 66 2.0 5.0 0.00 0.00 0.00 53 1013.8
20260502190509 70 163 0.0 4.0 0.00 0.00 0.00 56 1013.8
20260502190007 70 79 0.0 5.0 0.00 0.00 0.00 56 1013.8
20260502185507 69 155 1.0 5.0 0.00 0.00 0.00 54 1013.9
20260502185003 70 155 1.0 7.0 0.00 0.00 0.00 53 1013.8
20260502184501 69 148 2.0 7.0 0.00 0.00 0.00 53 1013.9
20260502184100 68 127 1.0 7.0 0.00 0.00 0.00 54 1013.8
20260502183559 68 206 1.0 7.0 0.00 0.00 0.00 56 1013.9
20260502183057 68 210 1.0 4.0 0.00 0.00 0.00 55 1013.9
20260502182556 68 211 1.0 5.0 0.00 0.00 0.00 57 1013.9
20260502182053 67 123 0.0 5.0 0.00 0.00 0.00 56 1013.9
20260502181554 67 177 1.0 6.0 0.00 0.00 0.00 55 1013.9
20260502181051 67 166 2.0 6.0 0.00 0.00 0.00 56 1014.0
20260502180551 67 94 0.0 4.0 0.00 0.00 0.00 59 1014.0
20260502164027 62 173 1.0 3.0 0.00 0.00 0.00 69 1014.5
20260502163528 62 132 0.0 2.0 0.00 0.00 0.00 68 1014.5
20260502163027 62 143 0.0 2.0 0.00 0.00 0.00 64 1014.6
20260502162524 61 141 0.0 3.0 0.00 0.00 0.00 65 1014.5
20260502162023 61 140 0.0 3.0 0.00 0.00 0.00 64 1014.5
20260502161522 61 184 1.0 4.0 0.00 0.00 0.00 62 1014.6
20260502161021 61 166 2.0 4.0 0.00 0.00 0.00 62 1014.6
20260502160518 60 123 1.0 3.0 0.00 0.00 0.00 66 1014.5
20260502152010 54 36 0.0 1.0 0.00 0.00 0.00 77 1014.5
20260502151509 54 36 0.0 2.0 0.00 0.00 0.00 78 1014.5
20260502151008 53 36 0.0 2.0 0.00 0.00 0.00 77 1014.5
20260502150508 53 36 0.0 2.0 0.00 0.00 0.00 78 1014.5
20260502130552 53 21 1.0 3.0 0.00 0.00 0.00 72 1013.3
20260502123547 52 358 1.0 2.0 0.00 0.00 0.00 74 1013.1
20260502123057 52 358 0.0 2.0 0.00 0.00 0.00 73 1013.1
20260502122547 53 358 0.0 2.0 0.00 0.00 0.00 73 1013.1
20260502122046 53 358 0.0 2.0 0.00 0.00 0.00 73 1013.1
20260502121546 53 358 1.0 2.0 0.00 0.00 0.00 72 1013.1
20260502121046 53 358 1.0 2.0 0.00 0.00 0.00 72 1013.1
20260502120545 53 359 1.0 3.0 0.00 0.00 0.00 72 1013.1
20260502115545 53 358 1.0 3.0 0.00 0.00 0.00 72 1013.1
20260502115047 53 358 1.0 3.0 0.00 0.00 0.00 71 1013.2
20260502114544 53 359 1.0 2.0 0.00 0.00 0.00 72 1013.1
20260502114044 53 359 0.0 2.0 0.00 0.00 0.00 73 1013.2
20260502113544 53 359 1.0 2.0 0.00 0.00 0.00 73 1013.1
20260502113045 53 359 0.0 2.0 0.00 0.00 0.00 72 1013.1
20260502112542 53 359 1.0 2.0 0.00 0.00 0.00 73 1013.1
20260502112041 53 359 1.0 2.0 0.00 0.00 0.00 72 1013.1
20260502111548 53 359 1.0 2.0 0.00 0.00 0.00 71 1013.1
20260502111040 53 359 0.0 3.0 0.00 0.00 0.00 72 1013.1
20260502110540 53 359 1.0 3.0 0.00 0.00 0.00 71 1013.0
20260502110039 53 346 1.0 3.0 0.00 0.00 0.00 71 1013.0
20260502105537 53 332 1.0 2.0 0.00 0.00 0.00 72 1013.0
20260502105037 54 332 0.0 1.0 0.00 0.00 0.00 71 1013.0
20260502104536 54 332 0.0 2.0 0.00 0.00 0.00 71 1012.9
20260502104036 54 332 1.0 3.0 0.00 0.00 0.00 70 1012.8
20260502103537 54 332 1.0 5.0 0.00 0.00 0.00 70 1012.8
20260502103035 54 317 1.0 5.0 0.00 0.00 0.00 72 1012.8
20260502102535 54 296 2.0 4.0 0.00 0.00 0.00 72 1012.8
20260502102034 54 11 0.0 2.0 0.00 0.00 0.00 72 1012.8
20260502101535 54 11 1.0 2.0 0.00 0.00 0.00 72 1012.8
20260502101033 54 11 1.0 2.0 0.00 0.00 0.00 72 1012.9
20260502100556 54 11 1.0 2.0 0.00 0.00 0.00 71 1012.8
20260502091052 54 11 1.0 2.0 0.00 0.00 0.00 69 1012.8
20260502090549 55 11 0.0 2.0 0.00 0.00 0.00 69 1012.7
20260502071044 58 30 1.0 5.0 0.00 0.00 0.00 62 1012.4
20260502070546 58 274 0.0 6.0 0.00 0.00 0.00 62 1012.3
20260502070043 58 341 1.0 6.0 0.00 0.00 0.00 63 1012.4
20260502065541 57 23 1.0 6.0 0.00 0.00 0.00 64 1012.3
20260502065042 57 2 2.0 6.0 0.00 0.00 0.00 64 1012.2
20260502064541 57 33 1.0 3.0 0.00 0.00 0.00 64 1012.2
20260502064041 58 33 1.0 3.0 0.00 0.00 0.00 63 1012.1
20260502063541 58 33 0.0 2.0 0.00 0.00 0.00 62 1012.0
20260502063055 58 33 0.0 3.0 0.00 0.00 0.00 62 1012.0
20260502062541 58 267 1.0 4.0 0.00 0.00 0.00 62 1011.9
20260502062043 58 296 1.0 3.0 0.00 0.00 0.00 61 1011.8
20260502061547 58 12 1.0 3.0 0.00 0.00 0.00 62 1011.8
20260502061041 59 346 0.0 6.0 0.00 0.00 0.00 62 1011.8
20260502060540 59 345 1.0 6.0 0.00 0.00 0.00 61 1011.8
20260502060040 59 13 2.0 4.0 0.00 0.00 0.00 61 1011.8
20260502055540 59 26 0.0 7.0 0.00 0.00 0.00 61 1011.8
20260502055040 59 101 2.0 9.0 0.00 0.00 0.00 59 1011.8
20260502054539 59 205 1.0 9.0 0.00 0.00 0.00 60 1011.8
20260502054040 59 324 1.0 6.0 0.00 0.00 0.00 61 1011.7
20260502053540 60 309 2.0 6.0 0.00 0.00 0.00 60 1011.7
20260502053051 60 328 0.0 4.0 0.00 0.00 0.00 60 1011.7
20260502052539 60 356 1.0 4.0 0.00 0.00 0.00 60 1011.7
20260502052043 60 257 1.0 8.0 0.00 0.00 0.00 59 1011.8
20260502051538 60 198 4.0 8.0 0.00 0.00 0.00 59 1011.8
20260502051041 60 343 1.0 7.0 0.00 0.00 0.00 59 1011.8
20260502050538 60 341 1.0 7.0 0.00 0.00 0.00 59 1011.7
20260502050038 61 350 1.0 7.0 0.00 0.00 0.00 59 1011.7
20260502045538 61 308 1.0 6.0 0.00 0.00 0.00 59 1011.7
20260502045038 61 285 1.0 8.0 0.00 0.00 0.00 59 1011.7
20260502044538 61 313 0.0 8.0 0.00 0.00 0.00 59 1011.7
20260502044037 61 238 3.0 8.0 0.00 0.00 0.00 60 1011.7
20260502043537 61 300 0.0 7.0 0.00 0.00 0.00 59 1011.7
20260502043040 61 352 1.0 7.0 0.00 0.00 0.00 58 1011.7
20260502042537 62 4 1.0 4.0 0.00 0.00 0.00 59 1011.6
20260502042037 62 36 0.0 4.0 0.00 0.00 0.00 58 1011.6
20260502041538 62 349 0.0 5.0 0.00 0.00 0.00 58 1011.6
20260502041037 62 266 1.0 4.0 0.00 0.00 0.00 57 1011.5
20260502040536 63 313 1.0 6.0 0.00 0.00 0.00 57 1011.4
20260502040036 63 275 1.0 7.0 0.00 0.00 0.00 57 1011.4
20260502035536 63 350 2.0 7.0 0.00 0.00 0.00 56 1011.4
20260502035036 63 306 3.0 6.0 0.00 0.00 0.00 56 1011.3
20260502034536 63 308 2.0 7.0 0.00 0.00 0.00 57 1011.3
20260502034036 63 30 1.0 7.0 0.00 0.00 0.00 57 1011.3
20260502033536 63 232 1.0 2.0 0.00 0.00 0.00 58 1011.3
20260502033040 63 174 0.0 2.0 0.00 0.00 0.00 58 1011.2
20260502032535 64 173 0.0 2.0 0.00 0.00 0.00 59 1011.2
20260502032035 64 173 0.0 2.0 0.00 0.00 0.00 58 1011.2
20260502031535 64 173 0.0 1.0 0.00 0.00 0.00 58 1011.2
20260502031035 65 173 0.0 1.0 0.00 0.00 0.00 59 1011.1
20260502030535 65 173 0.0 1.0 0.00 0.00 0.00 62 1011.1
20260502030035 65 173 0.0 1.0 0.00 0.00 0.00 62 1011.0
20260502025536 65 173 0.0 2.0 0.00 0.00 0.00 62 1011.0
20260502025037 65 173 0.0 2.0 0.00 0.00 0.00 61 1011.0
20260502024532 66 173 0.0 1.0 0.00 0.00 0.00 59 1011.0
20260502024029 66 173 0.0 1.0 0.00 0.00 0.00 59 1011.0
20260502023528 67 173 0.0 1.0 0.00 0.00 0.00 58 1011.1
20260502023033 67 173 0.0 2.0 0.00 0.00 0.00 58 1011.1
20260502022526 67 173 0.0 2.0 0.00 0.00 0.00 57 1011.1
20260502022023 68 173 0.0 3.0 0.00 0.00 0.00 57 1011.1
20260502021528 68 173 0.0 3.0 0.00 0.00 0.00 55 1011.1
20260502021021 69 171 0.0 2.0 0.00 0.00 0.00 53 1011.1
20260502020520 69 167 0.0 3.0 0.00 0.00 0.00 52 1011.1
20260502020024 69 167 0.0 3.0 0.00 0.00 0.00 49 1011.0
20260502015516 69 171 0.0 2.0 0.00 0.00 0.00 49 1011.1
20260502015016 70 172 0.0 2.0 0.00 0.00 0.00 49 1011.1
20260502014513 69 172 0.0 4.0 0.00 0.00 0.00 50 1011.1
20260502014011 70 170 1.0 4.0 0.00 0.00 0.00 50 1011.1
20260502013510 70 157 0.0 3.0 0.00 0.00 0.00 51 1011.1
20260502013009 70 153 1.0 3.0 0.00 0.00 0.00 49 1011.2
20260502012507 69 186 1.0 3.0 0.00 0.00 0.00 50 1011.2
20260502012006 70 198 1.0 3.0 0.00 0.00 0.00 49 1011.2
20260502011505 70 180 1.0 3.0 0.00 0.00 0.00 49 1011.3
20260502011004 69 167 0.0 4.0 0.00 0.00 0.00 51 1011.4
20260502010502 69 161 1.0 4.0 0.00 0.00 0.00 50 1011.4
20260502010100 70 186 1.0 5.0 0.00 0.00 0.00 49 1011.4
20260502005559 70 69 0.0 5.0 0.00 0.00 0.00 49 1011.5
20260502005058 71 137 0.0 4.0 0.00 0.00 0.00 48 1011.5
20260502004557 71 223 1.0 4.0 0.00 0.00 0.00 48 1011.4
20260502004055 72 150 1.0 4.0 0.00 0.00 0.00 47 1011.4
20260502003552 72 146 0.0 4.0 0.00 0.00 0.00 48 1011.4
20260502003051 72 199 0.0 4.0 0.00 0.00 0.00 47 1011.4
20260502002549 73 138 1.0 3.0 0.00 0.00 0.00 45 1011.4
20260502002048 73 101 0.0 4.0 0.00 0.00 0.00 45 1011.4
20260502001546 72 141 1.0 4.0 0.00 0.00 0.00 44 1011.4
20260502001044 73 134 0.0 3.0 0.00 0.00 0.00 44 1011.4
20260502000543 73 60 0.0 5.0 0.00 0.00 0.00 44 1011.5
20260502000049 73 139 1.0 5.0 0.00 0.00 0.00 42 1011.5
20260501235541 73 72 1.0 4.0 0.00 0.00 0.00 43 1011.5
20260501235040 73 126 1.0 4.0 0.00 0.00 0.00 42 1011.6
20260501234540 73 159 1.0 4.0 0.00 0.00 0.00 42 1011.6
20260501234037 73 126 0.0 4.0 0.00 0.00 0.00 45 1011.7
20260501233538 73 159 0.0 4.0 0.00 0.00 0.00 44 1011.7
20260501233035 73 182 2.0 4.0 0.00 0.00 0.00 43 1011.8
20260501232533 73 221 2.0 5.0 0.00 0.00 0.00 41 1011.8
20260501232032 72 162 1.0 5.0 0.00 0.00 0.00 45 1011.9
20260501231530 72 159 2.0 4.0 0.00 0.00 0.00 45 1011.9
20260501231028 71 143 1.0 4.0 0.00 0.00 0.00 45 1012.0
20260501230527 72 157 1.0 5.0 0.00 0.00 0.00 44 1012.2
20260501230025 71 246 2.0 7.0 0.00 0.00 0.00 44 1012.2
20260501225524 72 136 2.0 7.0 0.00 0.00 0.00 44 1012.2
20260501225022 72 207 2.0 6.0 0.00 0.00 0.00 45 1012.3
20260501224522 72 48 1.0 4.0 0.00 0.00 0.00 46 1012.3
20260501224019 72 65 1.0 4.0 0.00 0.00 0.00 46 1012.4
20260501223518 71 120 0.0 4.0 0.00 0.00 0.00 46 1012.4
20260501223017 71 121 1.0 4.0 0.00 0.00 0.00 48 1012.5
20260501222515 71 117 1.0 5.0 0.00 0.00 0.00 47 1012.6
20260501222013 71 127 1.0 6.0 0.00 0.00 0.00 48 1012.7
20260501221516 70 162 2.0 6.0 0.00 0.00 0.00 47 1012.7
20260501221015 71 79 1.0 6.0 0.00 0.00 0.00 48 1012.7
20260501220509 70 101 0.0 6.0 0.00 0.00 0.00 48 1012.8
20260501220007 71 159 1.0 5.0 0.00 0.00 0.00 50 1012.8
20260501215506 70 133 2.0 6.0 0.00 0.00 0.00 47 1012.8
20260501215004 70 24 1.0 6.0 0.00 0.00 0.00 49 1012.9
20260501214503 70 342 1.0 5.0 0.00 0.00 0.00 51 1012.8
20260501214000 70 36 1.0 7.0 0.00 0.00 0.00 50 1012.9
20260501213559 69 123 1.0 8.0 0.00 0.00 0.00 50 1012.9
20260501213110 68 192 2.0 8.0 0.00 0.00 0.00 50 1013.0
20260501212556 69 82 2.0 5.0 0.00 0.00 0.00 52 1013.0
20260501212055 69 188 1.0 5.0 0.00 0.00 0.00 51 1013.0
20260501211607 70 178 1.0 5.0 0.00 0.00 0.00 53 1013.0
20260501211051 69 153 1.0 6.0 0.00 0.00 0.00 53 1013.1
20260501210550 69 73 2.0 8.0 0.00 0.00 0.00 53 1013.1